RH
2 2 2 2 2 2 3 3 4 4 4 5 4 5 4 4 4 3 3 3 3 3 3 4 4 3 4 3 4 4 4 4 4 4 5 4 4 4 5 5 4 4 4 4 5 5 5 5 5 5 6 6 6 6 7 7 7 7 7 7 7 8 10 12 13 14 14 15 15 15 15 14 11 9 9 10 10 11 11 10 11 12 12 13 13 13 13 13
2 2 2 2 2 2 3 3 4 4 4 5 5 4 4 4 4 3 3 3 3 3 3 4 4 4 4 4 4 4 4 5 4 5 5 5 5 5 5 5 5 5 5 5 5 5 5 5 5 5 6 6 6 6 7 7 7 7 7 7 7 8 9 10 11 12 13 14 14 15 14 12 10 10 10 10 11 11 10 10 12 12 12 13 14 13 13 13
2 2 2 2 2 2 3 3 3 4 4 5 5 5 4 4 3 3 3 3 3 3 3 3 4 4 4 5 5 4 5 5 5 5 6 6 5 5 5 5 5 5 5 5 5 5 5 6 6 6 6 6 6 6 7 7 7 7 7 7 7 8 8 8 9 9 10 11 12 12 11 10 10 11 11 10 10 10 9 11 13 12 13 14 14 13 14 14
4 3 3 3 2 3 3 3 4 4 5 5 5 5 5 5 4 4 3 3 3 3 3 3 4 4 4 5 5 5 5 6 7 6 7 7 5 5 5 5 5 5 5 5 5 6 6 6 6 6 7 7 7 7 7 7 7 7 7 8 8 8 8 8 9 9 9 10 10 10 10 10 11 11 10 10 9 8 10 12 12 12 13 14 14 14 15 15
16 13 10 8 6 5 4 4 4 3 4 4 5 5 5 5 4 4 4 3 3 3 3 3 3 4 4 4 5 5 5 6 7 6 6 6 5 5 5 5 6 5 6 6 6 6 7 7 7 7 8 7 7 8 7 7 8 8 8 8 8 9 9 9 9 9 10 10 11 11 11 11 11 10 10 10 8 9 12 11 11 12 14 14 14 14 14 14
29 27 24 20 15 11 8 5 4 4 3 3 4 4 4 5 5 4 4 4 3 3 3 4 4 4 4 5 5 5 5 6 6 5 5 6 6 6 6 6 6 6 7 7 7 8 8 8 8 8 8 8 8 8 8 8 9 9 8 9 9 9 9 10 10 10 10 10 11 11 11 11 11 10 9 9 9 11 12 10 11 12 12 13 14 14 14 14
32 33 32 31 27 22 16 12 9 6 4 4 4 3 4 4 4 4 4 4 3 3 4 4 4 4 5 5 5 5 5 6 6 6 6 6 6 7 7 7 7 8 8 8 8 8 9 9 9 9 9 9 9 9 9 9 9 9 9 9 9 9 9 10 10 10 10 10 10 11 11 12 11 10 9 9 10 11 12 11 11 12 12 13 13 14 15 15
31 32 32 32 31 30 26 23 19 14 10 7 5 4 4 4 4 5 4 4 4 4 4 4 4 5 6 6 6 5 5 6 6 6 6 7 7 8 8 8 8 8 8 9 9 9 9 10 10 10 9 10 9 9 9 9 9 8 9 9 9 9 9 9 9 9 11 11 10 11 12 13 12 10 9 10 11 12 12 13 13 13 13 13 14 15 16 18
27 28 30 30 31 31 31 31 28 24 20 15 10 6 5 5 5 5 5 4 4 4 4 4 5 5 6 6 5 5 6 6 6 7 7 7 8 8 8 8 8 9 9 9 9 10 10 10 10 9 9 9 9 9 9 9 9 8 9 9 8 9 9 8 8 9 10 11 11 12 13 15 13 11 10 11 13 13 13 14 14 15 15 15 15 16 19 21
32 29 28 28 28 29 30 30 31 29 28 23 18 14 10 7 5 5 5 4 4 4 4 5 5 6 6 6 5 6 6 6 7 7 7 8 8 8 8 8 9 9 10 10 10 10 10 9 9 9 9 9 9 9 9 9 8 8 9 9 8 9 9 8 9 11 12 13 14 14 15 15 14 12 11 13 14 14 14 15 16 16 17 18 17 19 21 22
46 43 39 37 33 30 29 29 29 29 28 27 24 22 18 13 8 6 5 4 4 4 4 4 4 5 5 6 5 6 7 6 7 8 8 8 8 8 9 9 9 10 10 11 11 10 10 10 9 9 9 9 9 9 9 9 8 9 9 8 8 9 9 9 11 13 15 16 17 17 16 15 14 12 13 15 15 15 16 17 18 18 20 20 19 21 24 24
51 51 50 49 48 43 36 31 29 28 27 27 25 22 18 16 12 7 6 5 4 5 5 5 5 5 5 6 5 5 6 6 7 8 8 8 8 9 9 9 10 10 9 9 9 9 9 8 8 8 9 8 9 9 9 9 9 9 8 8 8 9 9 10 13 16 17 17 18 18 17 15 12 13 16 17 16 17 18 19 20 20 22 23 23 25 27 27
49 50 50 51 52 51 45 36 30 28 27 26 25 21 18 17 13 10 8 7 5 5 5 6 5 5 5 5 5 6 6 7 7 8 8 8 9 9 9 9 9 8 8 8 8 8 8 7 7 7 8 8 8 9 9 9 9 9 9 10 10 10 9 11 14 16 17 18 18 19 19 15 11 13 18 16 17 19 20 21 22 24 26 26 27 30 31 30
49 47 45 49 50 45 42 37 31 27 24 23 22 22 21 18 16 13 12 9 6 5 5 6 6 6 6 6 6 6 6 7 7 8 8 8 8 8 8 8 8 8 7 7 7 7 7 7 7 7 8 9 9 9 9 9 9 10 11 12 12 12 12 13 14 13 15 17 17 20 20 15 11 14 17 16 18 22 23 23 24 27 29 29 31 33 34 32
48 41 32 40 45 34 26 23 22 20 17 16 15 15 15 13 14 14 11 9 7 4 4 6 6 6 6 6 6 6 7 8 8 8 8 8 8 8 8 7 8 8 7 7 8 7 8 8 8 8 9 10 11 10 10 10 9 10 13 14 13 14 15 14 14 13 14 16 17 19 20 18 14 13 15 17 20 24 25 25 26 29 31 31 33 35 35 34
46 40 26 30 36 30 25 21 20 18 16 15 13 11 9 8 10 9 8 7 6 4 4 6 6 6 6 6 7 8 8 8 9 9 9 9 9 8 8 8 8 8 8 8 7 8 8 8 9 9 11 12 12 11 11 11 10 11 14 15 15 16 17 16 16 16 16 17 17 19 20 18 15 14 16 19 23 26 27 27 29 32 33 33 35 36 35 36
39 36 30 29 33 32 32 28 25 23 20 17 15 13 10 8 7 7 7 6 5 4 4 6 6 6 6 6 7 9 9 9 10 10 10 10 9 9 9 9 9 9 8 8 8 9 9 9 10 11 11 12 13 13 13 12 11 12 15 17 18 19 20 21 20 19 19 19 19 21 19 16 15 16 18 22 25 27 27 28 31 35 36 36 36 37 37 37
33 34 34 35 35 34 33 28 25 23 18 16 15 11 9 8 8 7 8 7 7 6 5 6 7 7 9 11 11 12 11 10 10 10 9 10 9 10 10 9 9 9 9 9 9 10 10 11 11 11 12 13 14 14 15 14 14 16 18 20 22 24 25 26 23 21 20 19 20 21 18 16 17 18 21 25 27 26 25 27 30 34 38 39 38 38 38 38
30 33 34 34 33 32 30 24 20 16 13 16 17 12 9 9 9 8 9 9 8 7 7 7 8 9 11 13 12 12 10 9 9 9 8 9 9 9 9 9 9 9 10 10 11 11 12 11 11 11 11 12 13 14 14 15 16 17 20 24 27 29 29 26 23 20 19 20 19 20 20 20 20 21 23 24 24 24 25 27 29 33 39 40 39 38 39 39
18 20 21 22 23 25 23 17 13 11 12 18 19 16 12 10 9 9 9 9 8 8 7 7 8 9 9 9 8 8 8 8 8 8 8 8 9 9 9 10 10 10 11 11 11 11 11 11 9 9 10 11 13 14 15 15 16 18 22 28 31 31 26 21 20 19 19 21 21 22 24 22 23 26 25 22 21 22 23 26 28 34 40 41 40 39 40 40
8 9 10 10 13 14 14 12 10 10 12 14 15 15 13 11 11 9 9 9 8 8 8 8 8 8 9 9 9 8 8 9 9 9 9 9 10 11 11 11 10 11 11 11 10 10 9 9 8 10 11 12 13 13 14 15 17 20 24 28 27 25 21 18 19 19 20 23 23 24 24 24 28 29 25 22 22 23 25 28 31 37 42 41 40 40 40 40
6 7 7 8 10 10 11 11 11 11 11 10 11 12 11 11 11 10 10 10 10 10 10 10 9 9 9 9 10 10 11 12 12 11 12 12 12 11 11 11 11 11 10 9 9 9 9 8 9 11 12 12 12 13 15 17 21 23 25 25 23 21 19 19 21 22 24 25 25 25 24 26 30 28 26 27 27 28 30 32 36 40 41 41 41 41 41 41
6 6 7 8 9 10 11 12 11 11 11 10 11 10 9 9 9 9 9 9 11 15 16 13 12 11 11 12 12 12 13 12 12 13 13 12 11 10 10 10 10 9 8 8 8 9 8 9 10 11 11 13 14 15 17 19 22 23 24 22 21 20 22 23 23 23 26 27 28 28 27 30 33 31 31 33 31 32 34 35 39 41 41 41 41 42 43 44
7 6 8 9 10 12 12 12 12 11 11 11 10 9 8 7 7 8 8 9 16 20 19 15 14 15 14 15 14 13 13 12 12 14 12 11 10 10 10 9 9 8 8 8 8 9 9 10 11 12 14 15 16 18 20 21 23 23 22 21 22 22 24 24 24 25 27 28 29 28 31 34 35 36 36 34 35 35 37 39 40 42 42 43 43 44 47 49
9 7 9 10 11 12 12 12 11 11 12 10 9 8 6 6 5 6 8 13 18 20 18 15 16 19 18 16 14 12 12 11 13 13 10 10 11 10 9 8 8 9 9 9 9 11 12 13 14 15 16 17 18 19 20 23 23 23 22 23 24 23 23 24 25 29 29 30 30 30 40 43 36 36 38 36 38 38 40 42 41 43 45 45 47 48 51 54
11 7 9 10 11 11 11 11 10 11 10 9 8 6 5 5 4 6 11 15 18 17 16 16 17 19 16 12 10 9 9 11 11 10 10 11 11 9 9 9 9 10 10 10 11 12 14 15 15 16 17 17 17 18 20 24 24 24 24 23 24 22 24 26 27 31 32 32 33 32 43 48 38 39 42 39 41 41 44 47 45 47 48 49 53 54 57 60
12 7 9 9 9 10 9 9 9 9 8 7 6 5 5 3 3 8 13 18 18 14 15 17 16 15 12 9 8 8 9 10 10 10 11 11 9 9 10 10 10 11 12 13 13 14 15 15 15 16 16 17 18 21 23 25 25 25 24 23 24 23 25 26 27 32 33 33 34 32 38 45 42 46 49 45 43 45 48 51 51 52 54 55 59 61 63 65
16 13 15 15 15 16 16 15 12 8 6 6 5 5 4 3 6 11 15 19 18 14 16 17 13 11 10 8 8 9 10 10 10 11 11 9 10 10 11 12 13 14 15 14 15 15 15 15 16 17 18 20 22 24 25 26 25 24 23 24 24 25 28 28 29 32 34 40 38 31 36 48 49 51 56 53 48 48 52 55 56 58 60 62 64 65 66 67
24 26 26 26 27 28 28 25 19 11 6 5 5 5 4 4 9 13 16 19 15 14 16 14 10 9 8 8 11 12 11 10 11 11 10 11 12 12 12 14 16 17 15 16 17 17 17 17 18 20 21 23 23 24 26 26 24 24 24 24 25 28 28 26 31 35 40 48 42 33 38 48 53 54 56 59 54 51 54 57 60 63 65 67 67 68 70 70
30 34 32 32 34 34 33 31 26 17 7 5 6 5 3 7 10 12 18 18 12 15 15 10 10 9 8 11 12 12 11 11 12 13 13 14 14 14 15 17 18 16 16 18 18 18 18 17 19 23 24 23 23 25 27 25 25 24 25 26 27 29 27 29 37 38 45 53 41 35 40 44 54 56 53 58 58 55 55 57 63 67 69 71 71 72 74 74
32 35 34 34 34 34 34 33 30 22 10 7 8 5 4 8 9 9 16 15 12 14 12 8 10 9 10 11 11 11 12 13 14 14 15 16 16 17 17 19 18 15 17 19 18 18 18 18 22 25 23 23 24 26 25 24 25 25 28 29 29 29 26 32 40 38 52 63 43 34 41 45 55 57 55 62 64 61 60 59 64 69 72 74 75 76 77 77
28 29 30 32 34 36 36 33 32 25 13 9 9 6 5 8 10 11 14 12 11 12 9 8 10 10 11 12 12 14 14 15 16 16 17 17 17 18 18 20 19 18 21 21 19 19 17 21 27 24 21 24 25 24 23 24 26 28 30 30 33 41 39 43 51 48 55 59 39 35 44 46 53 53 54 63 65 65 67 65 67 70 74 77 77 78 79 79
24 23 23 30 36 39 37 33 32 27 16 9 8 7 6 8 11 13 14 12 11 11 9 9 11 12 14 14 16 17 15 17 18 18 19 19 20 21 20 22 22 23 25 24 24 22 19 23 27 23 22 24 25 25 25 27 29 30 32 31 36 48 54 62 69 57 48 43 34 38 44 45 55 59 56 61 63 66 69 71 73 74 77 80 80 80 81 80
25 23 24 31 35 36 36 32 31 27 15 8 7 7 7 10 12 13 12 11 11 11 11 12 13 15 16 17 18 18 17 18 19 19 20 20 21 22 22 24 24 25 26 25 26 28 27 27 24 22 24 24 25 27 28 30 32 32 33 35 36 39 44 56 63 54 48 47 40 40 47 52 61 67 66 67 69 71 74 77 78 79 82 84 84 83 83 84
25 22 26 32 34 33 32 29 27 21 12 7 7 7 9 12 13 12 11 10 11 12 14 15 16 17 18 19 20 21 20 20 19 20 20 20 21 22 23 25 25 26 28 28 28 30 33 30 24 24 25 25 27 28 30 32 33 35 35 35 39 38 38 44 50 47 49 60 55 47 56 62 65 73 75 75 77 77 80 83 83 86 88 87 87 87 88 91
23 21 25 31 32 30 27 23 17 12 8 7 7 8 10 12 12 11 11 12 14 15 16 17 17 18 19 20 21 22 21 20 20 20 21 21 22 24 25 26 27 29 30 31 31 33 37 31 23 25 25 26 29 31 33 34 34 37 38 38 41 42 42 45 47 44 50 66 62 51 65 74 74 82 82 80 83 83 84 88 88 90 89 88 90 91 93 94
20 20 24 27 27 25 21 15 10 8 8 8 8 8 10 11 10 12 14 16 17 18 18 18 19 20 21 20 21 22 21 21 20 20 21 21 22 24 26 28 29 31 31 33 32 34 38 32 24 26 28 28 31 32 33 35 37 39 40 42 43 44 47 48 51 56 63 74 64 50 64 79 79 82 82 80 86 87 89 92 90 89 90 91 94 93 94 95
16 18 21 22 22 18 13 9 7 8 8 7 6 7 10 12 13 16 18 18 19 20 20 21 21 22 23 22 21 21 21 21 21 21 21 22 24 25 27 30 30 32 33 34 34 34 38 37 29 28 31 31 31 33 33 34 38 41 41 44 45 48 51 49 53 61 67 80 80 61 59 68 71 73 75 80 89 90 90 91 90 92 93 94 95 95 94 90
13 17 18 18 17 12 8 7 7 6 6 6 7 9 13 15 17 19 20 20 21 21 21 22 22 22 23 23 21 20 19 20 22 22 21 23 25 26 30 31 31 34 35 34 35 35 38 42 35 29 31 32 31 34 36 36 38 40 43 46 46 49 52 50 51 54 59 77 88 77 65 65 68 70 73 81 89 92 91 92 94 95 95 96 96 90 82 68
15 17 16 15 12 8 6 6 5 5 6 8 11 14 17 18 20 21 21 21 21 21 22 22 22 22 22 21 20 19 18 19 21 22 23 24 26 29 31 32 32 34 34 34 36 35 37 44 41 31 30 32 33 36 38 39 42 42 44 47 48 50 52 54 54 50 53 69 86 91 83 70 67 72 77 84 90 93 95 96 97 98 97 93 82 68 57 48
15 14 12 10 7 5 5 5 6 8 10 12 15 18 19 20 22 22 22 22 21 22 23 22 21 21 20 19 20 21 20 21 22 23 25 26 28 30 31 32 32 33 34 35 35 36 39 46 46 38 33 32 32 35 37 42 44 45 46 47 51 55 56 63 67 56 51 60 73 84 84 72 68 73 80 88 94 95 97 100 99 96 86 72 57 49 46 45
10 9 7 6 4 5 6 8 10 12 13 16 18 19 21 21 22 22 22 22 21 21 21 20 19 19 20 21 22 23 23 22 23 25 26 27 29 31 32 33 33 35 36 36 35 37 40 46 49 42 36 35 35 36 40 44 43 45 51 52 54 58 59 66 71 63 58 61 62 69 79 79 77 76 77 86 94 98 101 99 90 78 64 52 46 46 47 49
6 6 5 5 6 8 10 11 14 15 16 18 19 20 21 21 22 22 21 19 18 19 19 19 20 21 23 24 25 26 25 24 24 26 27 28 30 32 34 35 36 38 38 37 37 39 42 46 49 43 36 33 35 38 41 43 44 48 53 54 56 62 64 67 70 67 67 67 63 68 80 83 81 81 84 90 95 98 94 83 70 60 52 49 49 50 54 59
5 5 6 8 10 12 13 14 16 17 18 19 20 20 21 20 21 21 19 18 18 19 20 21 23 24 24 25 26 27 27 26 26 25 27 30 32 34 36 38 39 39 39 39 40 42 43 46 50 52 51 48 47 48 45 46 50 51 51 54 58 62 65 68 69 69 70 67 63 71 83 87 89 94 97 98 96 90 79 68 61 57 55 56 57 62 68 67
6 8 10 12 14 14 14 15 17 19 19 19 19 19 20 19 18 18 18 20 21 22 23 24 24 24 24 24 25 26 26 27 27 26 27 31 33 35 36 38 39 38 39 41 43 44 44 44 48 57 66 68 65 60 56 56 58 55 53 56 59 60 62 66 68 70 72 70 69 76 88 95 98 98 95 91 84 77 71 66 63 63 66 68 70 72 70 57
10 11 13 15 16 15 14 16 18 18 18 17 17 17 17 18 18 19 21 22 23 24 24 24 23 23 23 22 22 23 23 25 26 26 26 29 32 34 36 37 37 38 41 43 44 45 44 43 46 51 55 58 59 56 55 59 61 58 58 60 61 64 65 67 69 74 80 83 82 87 96 100 95 87 81 78 73 70 69 67 67 71 76 78 74 66 52 39
12 13 14 16 17 16 16 16 17 17 15 15 15 16 17 19 20 22 23 23 23 23 24 24 23 22 22 21 21 21 21 22 23 24 25 26 27 31 35 36 36 38 43 44 43 45 45 44 47 48 47 48 51 52 53 56 59 60 64 66 69 72 72 71 75 83 93 96 92 94 97 92 81 74 73 73 72 70 69 71 75 78 78 71 58 44 35 33
13 14 14 15 16 16 16 15 15 15 15 15 17 19 20 21 23 23 22 22 22 21 23 24 23 23 23 23 23 23 21 20 20 22 23 23 24 28 31 32 35 40 44 44 44 45 46 46 48 50 49 47 50 53 54 56 60 64 69 73 76 79 78 77 82 91 99 99 96 94 87 76 70 72 74 75 74 74 76 80 81 76 65 50 39 34 37 43
14 14 15 15 15 15 15 14 14 16 17 18 20 21 22 22 23 22 20 20 20 19 20 22 22 23 23 24 25 24 24 24 23 23 23 24 26 28 30 33 39 44 45 45 46 47 48 48 51 55 52 46 50 57 58 61 65 66 72 80 82 86 88 88 92 97 98 95 90 85 76 69 71 74 76 78 79 81 83 81 73 61 46 37 37 43 50 58
14 14 15 14 14 14 13 14 16 18 19 20 21 22 22 21 21 21 20 19 19 19 19 20 21 22 23 23 24 24 24 26 28 27 26 26 28 32 34 38 43 45 46 46 47 49 50 51 54 58 54 45 49 59 60 62 66 67 74 82 84 88 93 95 98 96 92 88 83 78 73 71 74 77 80 82 83 82 78 66 52 42 37 41 49 56 65 75
14 14 15 14 12 12 14 16 19 20 20 21 21 21 21 20 20 21 21 19 19 19 19 20 20 21 22 23 23 24 23 24 26 27 27 28 30 33 38 42 44 44 45 46 48 50 53 55 56 61 61 51 50 60 61 58 60 64 72 78 80 88 95 98 98 92 85 84 80 77 77 78 80 83 83 83 83 77 63 47 39 40 46 54 64 73 82 90
13 13 14 14 11 12 16 18 20 21 21 22 22 21 21 21 20 20 21 20 20 20 20 21 21 21 22 22 23 23 23 23 24 24 26 28 30 33 38 42 43 43 44 47 50 52 56 59 58 64 68 56 52 63 62 54 59 68 76 83 89 96 100 99 96 88 82 83 84 84 86 88 89 88 85 84 78 65 51 44 46 54 62 72 84 93 97 98
Wind_Speed
12 12 11 10 9 8 7 6 6 5 5 5 5 4 3 3 2 2 1 1 1 1 2 2 2 2 2 2 2 1 1 0 0 1 2 2 3 3 3 4 5 6 6 6 7 7 7 8 8 8 9 10 11 11 12 12 13 14 14 15 16 15 15 14 15 16 16 16 16 17 19 20 20 20 19 19 18 18 18 19 19 19 20 19 17 17 17 17
12 11 10 9 8 8 7 6 5 4 4 4 4 4 3 3 2 1 1 1 1 1 2 2 2 2 1 1 1 1 1 1 2 2 2 3 3 3 4 5 5 6 6 6 7 7 7 8 8 8 9 10 11 12 13 13 14 14 15 16 15 14 14 14 16 17 17 17 17 19 20 21 20 20 20 19 17 17 18 17 18 20 20 18 17 17 16 17
11 10 9 9 8 7 7 6 5 4 3 2 2 2 2 2 1 1 0 1 2 2 2 2 2 2 2 1 1 1 1 2 2 2 3 4 3 4 4 5 5 6 6 6 6 7 7 8 8 9 9 10 11 12 14 14 14 15 15 16 15 14 14 15 17 17 17 17 18 20 21 21 19 19 19 18 17 18 17 16 19 21 19 18 17 16 16 17
11 10 9 8 7 6 6 6 5 4 3 3 2 2 2 2 2 2 1 1 2 3 3 3 3 2 2 2 2 2 3 3 3 3 4 4 3 4 5 6 6 7 7 7 7 7 7 8 8 9 9 10 10 12 14 14 15 15 15 16 14 14 15 15 16 17 16 17 18 19 20 19 17 19 18 18 18 16 14 17 20 19 17 18 18 16 16 17
11 10 9 8 7 6 6 5 5 4 3 3 2 2 3 3 4 4 3 3 3 4 4 4 4 3 3 3 3 3 4 3 3 3 3 3 3 4 5 6 6 7 7 7 7 7 7 8 9 9 9 9 10 11 12 13 14 15 15 15 14 14 14 14 15 16 16 17 18 18 18 16 16 18 17 18 19 14 14 19 18 16 17 19 18 17 17 18
10 10 10 9 9 7 6 5 5 4 4 3 3 2 3 3 4 5 5 5 4 4 4 4 4 4 3 4 4 4 4 2 3 4 3 3 3 4 5 5 6 7 7 7 7 7 7 8 8 9 9 9 9 10 12 12 14 15 13 13 13 12 13 13 15 16 16 17 17 17 16 15 16 17 18 19 17 14 16 18 16 17 19 19 19 19 19 19
7 7 7 8 8 7 7 6 6 5 5 4 4 4 4 4 4 5 6 6 6 6 5 5 5 4 4 4 4 4 4 3 4 4 4 4 3 3 5 5 6 6 6 6 6 6 6 7 8 9 9 8 9 10 11 11 13 13 12 12 12 12 13 14 16 16 16 17 16 17 15 15 17 19 19 19 17 16 18 16 16 18 19 19 20 21 21 21
3 4 4 4 5 5 5 5 6 6 6 6 6 5 5 5 5 6 6 7 7 7 6 5 5 5 5 5 5 4 4 3 3 3 4 4 3 4 5 5 5 5 5 5 6 6 6 7 8 8 9 9 9 10 10 11 12 12 12 12 12 13 14 15 16 17 17 18 17 17 16 16 20 21 20 19 17 17 16 17 17 18 19 20 21 22 23 23
2 1 2 2 2 3 3 4 5 5 6 6 7 6 6 7 7 7 7 7 8 8 7 6 5 5 6 6 5 5 4 3 3 4 4 5 4 4 5 5 5 4 4 5 5 6 6 7 7 7 8 9 9 10 10 12 12 12 12 13 14 15 16 17 18 18 19 18 17 17 17 19 22 23 21 18 17 17 17 18 18 18 20 21 21 23 23 23
4 4 4 4 4 3 3 4 5 6 6 7 7 8 8 8 8 8 8 8 8 9 8 8 7 6 6 7 6 5 5 5 4 4 4 5 5 5 6 5 4 4 4 5 5 6 6 7 7 8 9 9 10 10 12 13 14 14 14 15 16 17 18 19 19 19 19 18 18 18 19 20 24 26 21 16 17 19 18 17 18 20 21 21 22 23 23 23
6 6 6 6 6 6 6 5 5 6 7 7 8 9 9 9 9 9 9 9 9 10 10 9 9 8 7 7 7 6 6 6 6 5 5 6 5 5 5 4 4 4 4 4 5 6 7 7 8 9 10 11 11 12 14 15 15 15 16 18 19 19 19 19 19 18 19 19 19 19 21 23 25 25 19 16 19 19 17 16 18 21 21 22 22 23 24 23
6 7 7 7 7 7 7 7 7 7 8 8 9 9 10 10 11 11 10 10 9 10 11 10 10 10 8 8 8 8 7 7 6 6 5 6 6 5 6 5 4 5 5 5 6 7 8 10 10 11 11 12 13 14 15 15 16 17 19 21 20 20 20 19 17 17 18 19 19 20 25 26 22 20 18 18 20 19 17 18 19 21 22 22 22 23 24 22
5 6 6 6 6 6 7 7 8 8 9 9 9 10 10 11 11 12 12 12 11 11 11 11 11 11 10 9 9 9 8 7 7 7 6 6 6 6 6 5 4 5 6 6 7 9 10 11 12 13 14 15 15 15 16 17 18 19 21 22 21 22 21 17 14 15 17 19 20 21 27 29 21 16 18 20 20 20 19 20 21 22 22 23 23 23 23 21
4 4 5 6 5 5 6 8 8 9 10 10 10 10 11 11 12 12 13 13 13 12 11 10 10 11 10 10 10 9 9 8 8 8 7 7 7 7 7 6 6 7 8 8 9 11 12 14 14 15 15 16 17 17 18 19 20 21 22 22 22 22 19 15 14 16 18 21 22 21 29 31 18 11 18 22 22 21 21 22 23 23 21 23 23 23 22 20
4 3 4 4 4 4 5 6 7 8 9 10 11 11 11 12 12 13 13 14 14 13 12 10 10 11 10 10 10 10 9 9 9 8 8 8 8 8 8 8 8 9 10 11 12 13 14 15 16 17 17 17 17 18 20 20 21 22 22 22 21 20 18 17 18 20 21 22 22 22 25 26 17 15 21 23 23 23 23 23 24 24 22 22 23 24 23 20
4 3 4 3 2 3 5 4 5 7 8 10 10 11 11 12 13 13 12 13 13 12 12 10 10 11 10 10 10 10 9 9 9 8 9 9 9 10 10 10 11 12 13 14 14 15 16 17 17 18 18 18 18 20 21 22 22 21 22 22 21 20 21 22 21 22 23 23 23 22 25 27 24 22 21 22 23 24 25 24 25 25 22 21 24 24 23 22
4 4 4 4 4 5 6 6 7 8 9 10 11 10 11 11 12 11 11 11 11 11 12 11 10 11 11 11 10 10 9 9 10 10 9 10 11 11 12 13 14 15 16 16 17 17 17 18 18 18 19 19 19 19 20 22 22 20 20 21 20 21 23 24 24 24 24 23 23 24 29 32 27 20 18 20 23 25 27 27 27 26 22 22 25 24 24 23
4 4 5 6 6 7 8 8 9 10 11 11 11 10 10 10 10 10 9 9 9 10 11 11 10 10 10 10 10 9 10 10 11 11 11 12 12 13 13 14 15 16 17 18 18 18 18 18 18 19 19 19 19 19 20 21 21 20 20 22 23 24 25 26 27 26 24 25 26 27 31 31 23 17 17 21 25 28 29 29 30 28 22 23 25 24 24 23
4 5 5 6 7 8 8 9 9 10 10 10 9 9 9 9 9 8 8 8 8 9 10 10 9 9 8 9 9 10 11 12 12 13 13 13 14 14 15 16 16 17 18 18 18 18 18 18 19 19 19 19 20 20 19 20 21 21 22 24 25 27 29 28 26 26 25 27 28 26 27 26 21 19 20 23 26 29 30 31 31 26 22 24 25 24 24 22
4 4 5 5 6 7 7 8 8 8 9 9 8 8 8 8 8 7 8 8 9 9 10 10 10 10 10 11 11 12 12 13 13 13 14 14 15 15 15 16 16 16 18 18 18 18 18 20 20 20 20 19 18 18 19 20 21 22 22 23 25 29 31 28 25 25 24 25 25 22 23 23 22 24 25 23 25 29 31 31 28 23 22 24 25 24 22 21
4 4 5 5 5 5 5 6 6 7 8 7 8 8 8 8 8 7 8 9 9 10 10 10 10 10 10 10 11 12 12 13 13 13 14 14 14 15 15 15 16 16 17 17 18 19 20 22 20 18 18 17 18 19 20 20 20 21 21 24 26 27 29 26 23 21 19 21 22 21 22 23 23 27 28 26 26 26 25 21 18 19 21 23 23 23 22 22
5 5 5 5 5 5 5 6 7 8 8 7 8 8 8 8 8 8 9 9 9 9 8 8 8 8 9 9 10 10 11 11 12 12 13 13 13 14 15 15 16 16 17 18 19 19 20 20 17 17 18 18 19 19 19 19 19 20 21 24 25 25 25 22 18 17 18 21 23 22 23 23 24 27 26 23 20 16 13 11 11 14 19 22 23 23 23 24
6 6 6 5 5 6 6 7 7 8 8 8 8 8 8 8 9 9 8 8 7 6 5 5 5 5 5 6 8 9 10 11 11 11 11 12 14 15 15 15 16 17 18 18 18 19 19 18 18 18 18 18 18 18 19 19 19 20 20 22 23 21 19 18 17 18 20 22 24 23 23 22 22 23 18 13 10 7 6 8 11 16 20 22 23 24 25 26
8 7 7 7 6 6 7 8 8 8 7 8 8 8 8 9 10 9 9 7 4 3 4 4 5 4 3 5 8 9 11 12 12 11 12 14 15 16 15 16 17 18 18 18 19 19 18 17 17 17 17 17 18 17 18 19 20 19 18 19 19 16 15 18 21 21 23 23 21 20 18 14 13 13 10 8 7 6 8 12 15 20 22 23 24 25 25 26
9 8 7 8 7 8 8 8 9 8 8 8 8 8 10 11 11 11 9 4 3 5 5 5 6 4 5 8 10 11 13 13 12 13 15 15 15 15 16 17 18 18 18 18 19 18 16 14 15 15 16 17 17 17 17 18 20 18 15 15 15 16 18 20 21 22 23 19 14 12 9 4 6 8 8 8 8 9 13 17 19 22 24 25 25 26 26 25
8 7 7 7 8 9 9 9 9 9 9 9 8 10 11 12 13 12 8 0 3 7 6 6 7 6 9 12 13 14 13 12 13 15 15 15 15 16 17 16 17 18 18 18 17 15 13 13 14 15 16 17 17 17 17 16 18 17 15 13 15 20 22 21 21 21 19 16 16 17 11 6 7 8 10 11 14 15 17 20 22 24 25 26 26 26 25 25
7 7 6 7 8 8 9 9 10 10 10 9 10 11 11 13 13 10 5 2 3 9 7 7 8 8 13 15 15 15 12 11 13 14 14 15 16 17 16 16 17 17 17 17 15 13 13 14 15 16 17 17 16 14 13 13 15 16 16 17 20 23 22 21 21 21 23 24 26 24 16 13 10 9 12 16 19 19 22 24 24 26 26 27 26 25 24 24
6 6 6 7 8 9 10 11 11 11 11 10 11 11 11 13 11 7 2 3 5 10 8 9 10 11 15 16 15 14 11 11 12 12 14 16 17 16 15 16 16 15 14 14 12 13 15 15 14 15 15 13 12 12 12 13 15 18 20 22 22 21 21 24 24 25 25 22 22 18 11 9 7 11 14 18 22 22 24 27 26 27 27 27 26 25 24 23
5 5 6 6 7 9 10 12 13 14 12 11 11 10 12 11 8 5 1 2 6 9 8 11 12 14 15 14 12 10 11 12 12 14 17 16 16 15 15 14 12 12 11 9 11 14 15 14 14 14 12 11 13 14 13 14 19 22 22 20 20 22 25 26 24 22 16 10 14 14 9 7 3 12 19 21 25 26 26 28 28 28 27 27 26 25 23 22
3 4 5 6 7 8 11 13 15 16 14 12 11 11 11 9 7 4 2 2 9 8 9 13 14 15 14 10 9 10 12 14 13 14 15 15 15 15 14 11 11 12 9 7 12 16 15 14 13 9 9 13 15 14 14 18 21 20 18 19 22 24 23 21 17 12 6 5 7 6 8 9 3 10 21 22 25 28 29 29 29 28 27 26 25 24 22 20
4 5 6 7 8 9 11 13 16 17 15 13 12 12 11 7 7 5 2 6 10 8 12 14 14 15 12 10 10 11 13 13 13 13 13 14 13 12 11 11 13 13 8 11 16 16 14 12 7 5 11 16 14 13 16 19 19 16 17 22 22 19 14 12 9 4 1 3 3 2 5 10 5 8 19 23 23 26 29 30 30 28 27 26 24 23 21 19
5 6 7 8 10 10 11 12 14 16 15 13 12 12 10 5 5 6 4 8 9 11 15 15 14 14 12 12 13 13 13 11 13 15 14 14 12 12 14 16 19 15 13 21 23 19 16 10 5 9 17 17 14 17 18 17 16 16 20 21 14 9 7 5 3 2 3 4 3 1 3 7 7 9 18 23 21 24 29 29 29 27 26 25 23 22 20 19
5 6 8 9 10 10 9 10 13 15 15 14 12 11 8 3 4 7 8 10 10 12 15 14 14 13 12 13 14 15 13 11 14 16 14 14 12 14 18 19 18 15 17 23 24 22 19 11 8 15 20 17 17 21 18 15 17 20 20 15 7 3 4 4 3 3 5 5 4 4 4 5 7 8 15 21 21 24 29 29 27 26 25 23 22 21 20 20
6 7 8 9 9 9 9 10 13 15 15 14 11 9 6 4 4 8 9 11 12 13 14 13 12 12 12 14 14 17 16 14 16 15 13 13 12 14 19 17 14 16 21 21 19 21 14 7 12 20 20 16 16 16 15 18 22 19 14 10 9 7 4 4 4 2 4 7 9 9 6 4 6 7 12 19 23 26 28 28 26 25 23 21 20 20 20 20
7 8 8 9 9 9 10 11 13 15 14 13 10 8 6 5 6 8 10 12 12 13 14 12 11 11 12 14 15 18 18 16 17 14 12 14 13 15 19 15 13 18 22 20 20 17 9 9 18 23 20 15 14 13 16 21 19 12 11 13 14 12 9 9 10 10 9 8 8 7 5 4 7 10 13 18 23 26 26 25 25 22 21 19 18 19 20 23
7 7 7 8 9 10 11 13 14 14 12 11 9 7 9 7 7 9 11 12 12 13 13 11 11 13 14 15 16 17 17 15 15 15 14 15 14 16 18 15 14 20 22 21 20 14 10 17 22 20 15 12 13 16 20 21 14 11 15 16 15 14 14 14 13 12 8 5 4 5 5 5 7 9 15 20 22 25 26 24 23 20 19 18 19 21 24 27
7 7 7 8 9 11 12 13 13 12 10 9 7 8 9 8 9 10 11 12 12 13 14 13 13 15 16 16 16 17 17 15 14 15 16 15 14 16 18 14 15 22 23 21 20 16 17 25 25 17 11 13 17 21 21 18 14 14 16 17 16 13 11 10 6 5 3 2 4 6 7 10 11 9 16 24 24 24 24 21 20 19 19 20 22 25 29 33
6 6 7 8 10 11 11 12 11 10 8 7 6 9 9 9 10 11 11 12 12 13 14 14 14 15 16 18 18 18 18 16 14 15 16 14 14 18 16 13 18 23 21 21 22 21 21 25 23 17 12 18 23 22 20 17 16 18 18 16 14 9 7 6 4 3 3 2 3 4 7 11 15 14 18 24 25 23 21 19 18 19 20 22 26 31 35 39
5 5 6 8 10 10 11 10 9 9 7 6 8 10 10 10 10 11 11 12 13 13 14 14 14 15 16 18 19 19 20 18 16 16 17 14 16 18 14 13 20 23 21 23 23 23 21 16 16 18 19 24 25 21 21 21 19 17 14 12 11 8 9 9 7 6 4 3 3 4 3 5 13 18 18 21 22 20 19 19 19 21 24 28 33 37 41 44
4 6 7 9 10 10 10 9 8 8 6 7 11 11 11 11 11 12 13 13 13 13 14 15 15 15 16 18 20 21 21 19 15 16 18 16 18 18 14 16 23 23 22 25 24 25 22 12 16 24 26 26 24 21 22 20 15 12 10 11 10 8 10 11 12 13 9 4 1 2 4 2 8 13 16 19 20 19 19 19 20 25 29 34 38 42 45 48
6 7 8 9 9 9 8 8 8 8 8 11 13 13 12 13 13 13 13 13 14 13 14 15 15 16 17 19 20 21 22 20 15 16 18 18 18 16 16 21 24 23 24 27 26 24 21 15 20 28 30 27 23 17 14 11 11 13 13 10 9 12 16 12 9 11 10 7 4 3 5 5 8 11 15 19 20 19 18 20 25 30 34 38 42 45 49 51
6 7 7 8 8 8 7 7 8 10 12 14 14 14 14 13 13 14 14 14 14 14 14 15 16 17 17 20 20 21 23 20 15 16 19 17 18 19 20 23 24 24 27 27 25 23 20 18 21 25 28 26 17 10 6 6 12 17 15 12 13 18 19 11 7 10 12 13 13 9 5 7 12 14 16 19 19 19 19 24 30 35 38 42 46 48 51 52
6 7 7 7 7 8 8 8 11 13 14 15 15 14 14 14 14 14 14 15 15 15 15 16 17 17 18 20 20 20 22 18 15 18 19 17 19 21 21 23 24 26 27 25 22 21 18 16 20 27 29 22 12 8 8 10 17 21 19 19 22 22 19 15 15 18 17 17 16 9 3 6 12 14 15 17 17 19 25 30 34 37 41 45 48 49 50 52
6 6 6 6 9 9 8 10 14 15 15 16 15 14 14 14 14 14 14 15 16 15 15 16 18 19 19 20 19 19 19 17 17 19 18 19 22 22 22 24 25 25 25 22 20 20 17 14 19 23 21 15 10 9 15 21 24 24 22 22 23 22 20 19 18 17 14 13 13 7 2 5 9 12 14 17 20 25 30 32 36 40 44 46 48 49 51 54
5 6 7 9 11 10 10 14 16 15 15 15 15 15 14 14 14 14 15 15 16 16 16 18 19 20 20 20 19 19 19 19 20 20 20 22 23 23 24 25 25 24 21 19 19 20 18 17 18 14 8 8 9 11 21 30 30 27 23 21 21 23 22 20 17 12 8 9 10 8 6 9 13 16 19 22 26 29 31 35 40 43 45 47 49 51 54 57
6 7 9 12 13 12 13 17 16 14 14 14 15 16 15 14 14 15 15 16 17 17 17 19 20 20 20 21 21 21 22 22 21 21 23 24 24 24 25 25 24 21 18 20 21 20 19 19 17 13 11 14 18 21 24 27 28 27 25 24 24 24 20 18 16 12 10 12 14 11 9 14 19 22 25 26 28 30 34 39 43 44 46 49 53 55 56 56
8 10 10 11 12 14 16 17 15 14 14 14 15 16 15 14 14 15 16 17 18 19 19 19 21 21 21 23 23 22 23 22 21 22 24 24 23 23 24 24 21 18 19 22 21 20 21 21 17 16 18 20 23 25 23 21 23 26 28 28 26 21 17 15 13 10 9 11 11 10 12 19 24 26 27 28 29 34 39 43 44 46 49 53 55 55 53 53
11 13 13 12 13 15 15 15 15 15 14 14 15 16 15 14 14 15 17 18 19 20 20 20 21 22 22 24 24 24 24 23 22 23 23 23 23 21 22 21 19 18 20 20 20 21 21 20 19 20 23 23 22 20 20 22 24 27 28 27 23 18 15 12 10 9 9 9 10 14 20 25 27 28 28 29 32 37 41 43 46 50 53 55 53 52 52 54
13 14 14 14 14 15 15 15 15 14 13 14 15 16 15 15 16 16 18 19 20 21 21 21 21 22 22 23 23 24 25 25 25 25 24 23 23 22 21 19 17 19 20 19 21 22 20 20 21 22 26 27 21 18 21 23 24 26 26 22 18 16 13 10 10 10 11 13 15 19 25 28 30 30 30 31 35 39 42 46 51 54 54 52 51 52 55 56
13 14 14 13 13 15 15 15 15 14 14 14 15 16 17 17 18 18 18 20 22 22 21 21 21 21 22 22 23 23 24 25 25 25 25 23 22 21 20 18 17 18 19 21 22 21 21 22 22 24 29 29 24 22 23 22 24 26 23 17 15 16 16 13 12 14 17 19 21 24 29 32 32 31 31 34 38 43 48 53 54 53 51 51 53 55 56 55
13 13 13 11 12 14 15 14 14 13 15 16 17 17 17 18 19 19 19 21 22 22 22 21 21 21 22 22 22 23 23 23 22 22 22 21 20 19 18 18 18 18 20 22 22 22 23 23 24 26 29 29 27 26 25 26 26 22 15 14 18 20 19 15 14 18 21 23 26 30 33 33 33 32 35 39 45 50 54 55 53 51 52 54 55 55 53 51
12 13 12 10 10 14 14 13 13 14 16 18 17 18 18 19 20 20 20 21 22 22 22 21 21 22 22 21 22 22 23 22 20 19 19 18 17 17 16 16 17 20 22 23 23 24 23 23 26 27 27 30 29 26 29 29 18 9 10 17 21 20 18 17 18 21 23 25 29 33 34 33 33 35 40 46 51 54 55 53 53 54 55 55 53 50 48 47
Wind_Direction
118 118 118 116 110 104 100 98 102 108 115 119 117 114 112 108 112 119 121 123 120 133 140 143 143 136 127 119 112 98 86 90 301 280 289 297 289 286 278 268 264 259 256 253 252 255 255 254 255 253 249 246 247 249 248 248 246 245 247 251 256 260 265 272 275 275 276 276 272 272 276 283 286 282 279 279 280 280 278 278 280 279 277 277 275 270 266 266
116 117 118 116 112 106 101 96 94 96 106 114 118 118 119 120 128 142 164 196 212 212 193 179 167 155 150 149 154 178 187 264 285 280 291 289 279 275 271 268 266 261 258 255 252 253 255 257 260 260 257 256 256 255 254 255 256 255 256 260 262 263 267 270 271 272 273 273 273 275 278 281 281 279 276 278 278 275 275 281 280 275 274 273 267 263 264 266
109 111 112 110 105 102 97 92 86 82 80 78 87 95 97 99 93 113 207 230 237 238 231 217 199 192 190 196 240 251 273 295 273 264 285 289 286 282 280 274 266 263 259 255 253 252 253 258 263 264 265 265 266 265 261 260 262 261 261 265 265 263 266 267 267 268 269 271 272 274 276 278 278 276 278 280 277 276 282 282 273 271 272 268 264 265 266 266
98 99 99 98 94 91 88 86 82 76 68 55 42 29 21 14 5 353 327 294 268 260 253 245 235 227 219 221 239 262 280 267 238 258 276 275 282 279 274 269 264 260 255 254 254 257 262 265 267 266 266 267 267 266 265 263 264 264 264 266 266 264 266 267 266 266 268 270 270 271 271 272 273 273 278 279 278 285 285 273 269 270 268 267 269 270 270 271
85 82 79 75 71 68 66 67 67 63 57 48 29 7 357 347 340 335 329 315 294 281 275 268 260 251 242 241 243 261 273 245 238 271 265 249 258 260 260 260 260 259 256 256 259 266 272 273 273 269 266 263 261 262 263 263 263 265 265 266 266 266 266 264 265 267 269 269 268 267 267 269 271 274 277 276 283 292 276 268 269 267 266 271 275 275 275 277
76 72 67 61 55 48 40 34 32 31 28 21 8 352 340 333 330 324 321 314 301 288 282 280 275 269 260 262 265 270 278 263 261 274 262 250 250 254 258 257 257 259 261 263 266 272 275 277 277 272 268 263 259 259 261 261 262 264 265 265 266 265 265 264 264 266 268 267 266 265 266 271 273 276 278 280 289 284 268 269 269 268 271 275 279 280 280 279
70 66 62 57 50 42 35 24 14 8 5 0 350 341 332 327 322 319 316 311 303 293 283 278 274 274 272 272 272 272 275 272 271 275 273 264 255 260 261 257 259 261 266 272 275 274 274 278 277 275 272 267 264 261 261 261 261 264 265 262 264 267 268 266 266 268 268 266 266 266 267 273 278 280 282 288 291 276 269 273 272 271 274 277 281 283 283 281
57 54 51 49 43 34 26 16 8 1 355 348 339 333 326 321 316 314 314 309 303 296 288 280 273 275 276 272 272 274 276 279 278 276 275 268 261 263 261 257 259 265 268 273 276 274 275 280 277 274 272 270 269 263 263 264 264 269 265 261 269 273 272 270 272 272 269 267 268 268 266 272 282 285 287 292 287 275 275 279 275 272 273 279 283 285 285 284
335 344 350 1 10 8 0 351 348 347 345 339 332 326 319 316 312 312 311 305 299 293 288 285 281 280 277 274 276 278 279 283 278 270 266 264 261 260 261 258 257 267 271 275 281 277 279 281 275 271 272 272 268 264 268 268 272 276 267 267 277 277 275 276 278 276 272 270 270 270 267 273 285 289 292 294 281 274 280 278 274 274 278 283 285 285 285 284
303 296 292 289 291 298 310 321 321 319 322 325 324 322 319 314 309 308 306 300 294 288 283 281 283 281 273 273 276 278 276 274 270 268 265 262 260 258 258 254 257 272 276 285 290 283 282 283 278 277 278 278 271 270 276 273 278 279 268 272 281 278 277 280 280 277 273 270 270 271 268 274 286 290 294 292 278 280 283 276 277 284 287 287 286 286 284 283
301 295 291 287 286 287 288 294 300 302 303 306 311 314 314 311 307 303 301 297 290 285 281 275 277 278 270 269 271 272 271 265 262 262 264 264 263 263 264 261 268 274 273 279 283 283 283 283 281 279 280 282 278 278 281 278 281 279 271 277 282 280 279 281 279 274 269 268 271 274 275 279 285 291 296 289 282 285 281 278 287 292 292 290 289 286 284 286
300 297 295 292 289 287 286 283 285 291 295 297 300 303 305 305 303 301 299 296 290 286 282 275 272 272 267 264 266 268 266 259 256 256 257 260 257 257 259 256 263 271 274 277 279 283 284 284 285 282 281 283 281 281 280 280 281 280 279 281 282 281 282 282 279 272 271 272 276 282 281 280 286 296 296 285 285 286 280 285 297 299 295 292 289 285 286 291
302 300 294 289 287 286 284 282 281 285 288 289 290 293 296 297 297 298 298 297 293 289 285 279 271 269 266 261 260 261 261 256 255 254 250 253 253 252 254 254 259 269 275 279 282 283 282 285 286 285 284 283 281 280 280 281 282 282 283 282 282 283 284 284 280 279 281 279 282 284 279 280 291 297 289 286 290 285 282 291 301 303 298 292 288 284 286 293
307 308 301 280 272 283 286 280 281 284 286 286 285 286 286 288 290 291 293 293 293 291 289 284 275 269 264 260 258 255 256 253 252 251 248 249 250 251 253 255 260 267 274 278 282 282 281 282 283 285 286 283 282 282 282 283 284 285 284 281 282 283 283 284 286 290 290 286 286 282 276 284 293 282 282 291 291 283 286 294 299 302 296 289 285 280 283 290
307 322 333 293 259 289 304 292 290 293 293 292 291 289 286 284 284 284 285 286 288 289 288 284 278 271 264 263 263 256 251 250 250 250 250 251 254 257 259 262 266 272 276 280 282 282 281 281 282 286 286 283 285 286 286 286 286 285 281 280 283 280 279 285 288 292 295 291 287 280 277 285 290 285 289 290 286 285 290 292 294 298 294 284 277 274 279 282
310 321 349 348 314 324 333 327 324 320 313 308 303 297 292 289 286 283 283 283 285 286 285 283 277 272 268 267 266 257 249 250 252 252 254 258 262 267 270 273 278 280 281 282 283 283 283 283 285 287 286 285 287 289 291 288 285 284 280 281 281 278 280 286 289 294 298 293 285 279 276 280 290 296 292 283 284 288 289 290 292 296 292 276 267 268 272 272
317 317 329 341 346 345 344 344 341 336 327 320 311 302 295 292 290 287 286 286 286 286 285 281 275 272 270 269 266 258 250 252 258 260 263 268 270 272 273 276 279 280 282 284 286 287 286 286 287 287 287 288 290 292 290 286 287 289 285 283 280 279 282 286 292 298 298 291 285 281 279 284 294 297 284 279 285 285 285 288 290 293 287 267 259 261 263 263
312 315 320 326 334 337 338 339 336 333 330 322 313 307 301 297 296 294 295 295 292 289 287 283 278 272 267 265 261 253 253 260 266 269 271 273 274 274 274 275 278 280 282 285 288 289 288 288 288 288 290 292 292 288 283 285 291 290 286 284 283 282 282 286 295 298 295 289 285 282 283 290 297 293 282 282 284 282 283 286 288 289 276 257 253 253 254 255
302 303 310 318 324 327 329 331 331 330 330 324 314 313 314 312 309 307 308 305 298 294 291 287 282 274 265 264 260 257 262 268 271 272 273 275 276 276 278 278 281 283 286 287 288 288 289 289 290 291 293 292 287 283 281 285 289 286 285 284 283 283 284 289 296 296 293 289 285 285 287 292 298 294 285 280 279 280 281 282 284 280 261 246 243 244 246 248
307 306 309 312 313 316 319 325 329 328 328 325 316 317 321 321 318 316 313 307 302 298 292 287 282 277 271 271 271 268 271 274 275 276 277 279 281 282 284 284 286 287 287 288 288 290 291 290 293 295 293 288 284 284 285 287 287 286 286 283 283 284 287 294 298 294 293 289 288 291 291 295 300 295 287 281 278 278 279 280 277 263 245 236 234 236 239 240
338 333 327 322 316 317 321 327 334 336 334 329 321 318 315 313 314 311 306 300 298 296 292 285 280 278 276 277 277 276 280 282 282 283 283 285 286 288 290 291 292 291 290 291 292 293 293 293 297 295 290 288 288 286 286 288 288 287 285 284 285 288 293 299 298 294 293 288 291 296 294 298 299 292 290 289 285 282 279 274 264 247 231 226 228 231 232 232
6 355 346 342 336 337 338 340 344 343 342 339 327 318 310 307 310 309 305 302 299 297 297 291 282 278 277 280 283 286 292 295 292 291 291 291 293 295 297 297 296 295 295 295 296 296 296 298 299 293 291 291 289 288 288 290 289 287 288 288 291 295 299 301 300 299 297 293 295 298 297 300 296 291 293 292 287 282 272 253 237 228 223 221 223 225 226 226
14 4 360 357 353 353 349 347 346 340 341 338 324 315 314 315 318 316 314 312 308 307 317 318 309 295 285 294 299 297 302 307 302 297 297 300 301 301 301 300 299 298 298 299 299 299 300 301 296 292 292 291 290 292 292 291 289 290 293 294 297 303 304 302 304 304 298 296 299 299 300 299 292 289 289 285 278 271 246 220 208 211 217 218 218 219 220 220
16 9 8 4 0 357 350 347 343 339 340 330 319 319 324 328 330 329 327 324 329 357 1 7 354 329 313 321 318 309 307 308 305 300 302 304 303 302 303 303 303 302 302 302 302 302 303 300 296 295 294 294 296 295 294 294 294 296 300 299 300 305 307 305 306 304 299 299 299 300 302 292 279 279 271 259 260 249 215 206 206 207 211 213 214 214 214 214
13 9 8 3 0 353 347 344 338 336 334 323 320 324 328 334 336 335 334 333 39 35 22 16 5 347 329 326 322 319 314 307 302 302 304 306 306 306 307 308 308 308 308 306 306 306 306 303 301 302 300 299 299 297 299 300 301 306 308 302 301 308 311 308 306 304 303 304 300 305 317 281 250 260 251 235 229 217 203 206 207 203 205 209 210 211 210 211
9 9 6 0 356 351 345 342 337 334 330 323 323 326 328 335 338 337 336 9 69 22 12 3 358 344 331 328 324 323 319 310 306 307 308 310 312 313 314 314 312 312 312 310 311 312 313 312 310 307 302 301 300 301 305 305 306 311 311 307 307 311 312 309 306 304 301 297 292 294 289 249 244 250 235 220 215 208 199 202 204 202 204 207 209 210 210 211
10 12 11 5 358 355 350 345 341 334 330 328 326 327 329 334 337 336 336 134 25 355 355 355 352 338 332 329 325 327 326 318 314 313 315 317 319 319 319 320 316 315 316 315 319 322 320 318 315 310 307 306 306 309 312 310 311 313 313 313 311 312 311 307 305 299 294 292 291 290 273 248 242 233 225 213 209 205 197 199 202 202 205 208 209 210 211 213
13 18 19 12 8 6 1 357 351 341 336 333 330 330 332 335 338 334 333 119 356 340 342 345 341 333 331 328 327 331 331 324 320 318 321 323 323 323 323 322 320 321 322 320 325 329 325 323 320 316 316 318 321 322 318 317 319 317 316 315 312 311 308 304 301 294 293 293 292 290 256 234 229 209 211 209 209 206 198 198 201 202 206 208 209 212 214 217
8 18 18 14 11 10 8 5 0 354 350 345 341 338 337 341 345 339 124 117 341 337 341 338 333 331 332 332 333 337 333 328 328 327 327 328 327 326 328 327 326 330 330 325 330 332 329 326 323 321 325 330 327 323 317 319 322 319 316 315 312 311 307 303 298 293 293 280 284 288 232 207 215 199 199 202 211 213 205 202 203 204 206 209 211 215 218 221
343 357 0 358 355 358 3 2 360 359 357 355 353 348 344 347 353 2 115 351 335 337 339 337 335 336 340 344 340 339 336 334 335 335 334 336 334 334 336 333 331 336 335 331 337 339 334 327 323 327 338 334 324 318 315 317 321 319 318 317 315 313 309 302 294 291 299 260 276 297 218 211 242 207 202 204 213 218 215 209 205 206 208 211 215 219 223 230
314 326 331 332 331 334 343 352 355 355 354 355 356 354 350 347 359 32 83 337 337 338 338 341 343 344 351 357 349 344 344 341 341 343 342 342 342 341 344 343 342 346 346 341 343 347 345 337 334 341 337 332 323 316 317 319 322 322 320 319 317 316 311 297 285 271 255 256 275 330 217 218 229 208 201 206 216 219 220 217 212 211 212 215 220 224 231 239
319 322 327 331 329 325 328 339 347 349 350 351 352 355 354 350 11 32 10 339 341 340 342 347 349 353 0 359 353 350 352 353 349 349 350 351 351 353 356 356 356 1 356 344 344 349 352 352 354 340 334 332 324 320 324 324 326 324 317 317 319 325 328 301 269 230 233 251 257 277 230 222 231 216 201 208 220 220 219 220 218 217 218 222 227 232 239 248
327 333 337 341 340 333 330 331 338 344 345 344 347 352 357 15 25 11 356 350 349 346 348 350 352 0 4 359 357 355 357 3 358 356 360 0 360 2 2 359 3 9 356 345 343 346 350 352 346 338 333 331 324 324 328 328 326 319 312 317 326 346 347 301 270 286 279 267 259 266 267 239 231 222 208 211 220 219 218 219 221 223 225 229 235 241 249 257
330 340 344 346 346 342 338 333 336 339 338 340 345 349 8 53 24 360 358 356 355 354 355 355 360 7 6 2 2 1 2 3 3 5 7 4 1 2 1 360 5 1 351 349 347 344 343 333 335 335 329 324 323 325 326 324 322 315 309 317 309 293 283 264 257 267 278 286 285 274 267 240 217 218 213 211 213 214 215 218 221 226 229 235 243 250 259 268
333 340 342 344 344 342 338 335 333 334 335 341 345 357 38 61 20 3 3 358 359 3 1 2 8 10 11 10 9 8 6 3 5 8 5 2 0 359 359 0 1 353 351 352 347 340 323 307 326 330 323 319 322 324 324 324 322 310 305 310 302 293 274 262 273 277 279 301 294 253 234 238 223 212 204 205 212 213 214 219 223 228 234 240 251 261 272 282
333 336 338 338 338 337 333 332 332 333 338 343 345 15 51 54 21 12 8 3 4 6 7 8 10 13 17 17 15 12 6 3 5 4 360 358 359 358 356 355 355 351 350 351 347 340 309 308 325 329 320 319 322 322 324 323 317 302 305 307 302 297 283 272 279 285 283 305 280 207 186 197 195 202 205 205 212 215 216 221 225 232 241 250 264 275 286 296
329 331 333 332 331 330 330 332 334 337 343 347 359 37 52 43 27 21 14 10 11 10 13 15 14 14 14 14 16 11 6 5 3 360 357 356 356 354 351 351 351 348 347 346 343 337 315 313 326 334 325 324 324 323 324 323 315 308 308 309 306 300 283 265 275 312 312 284 261 222 200 194 185 198 211 209 212 216 217 224 231 242 253 265 280 291 300 307
324 327 326 327 329 330 334 337 339 344 348 354 25 54 54 40 33 27 20 19 19 17 21 23 20 15 10 7 8 6 5 4 359 357 358 358 354 349 347 347 345 343 343 341 337 336 325 317 325 335 328 327 327 325 326 323 317 314 310 310 309 298 283 272 268 315 317 289 285 249 221 216 214 218 215 211 214 218 223 233 245 257 271 284 297 306 312 316
325 330 329 331 334 337 341 341 346 356 357 13 47 61 54 45 40 33 29 28 26 25 26 25 21 15 9 4 0 0 3 0 355 355 356 356 351 346 343 341 340 339 339 338 335 334 331 315 311 322 324 326 330 329 325 321 319 320 318 320 318 297 292 291 277 282 282 280 303 285 273 227 220 228 228 219 217 223 234 248 263 278 291 303 312 317 320 321
342 342 339 338 340 344 347 350 358 3 11 44 60 63 56 51 46 39 38 34 30 30 25 20 17 11 6 3 357 356 358 357 352 351 352 351 348 346 341 335 336 336 335 335 333 331 332 310 293 313 323 329 332 330 324 324 331 339 337 333 328 316 314 304 289 285 276 257 247 286 297 244 209 227 231 221 222 233 245 262 283 299 309 316 320 322 322 322
351 346 344 343 345 351 355 4 17 24 44 60 63 62 58 55 50 45 41 36 32 28 21 17 13 8 4 1 356 351 351 353 350 349 349 347 347 343 335 332 333 333 332 333 332 332 332 312 297 312 326 332 333 330 326 338 0 358 344 331 320 324 328 319 293 287 277 265 264 275 287 271 243 236 225 221 229 242 259 283 303 313 319 322 323 324 323 323
353 348 349 348 353 4 10 22 39 49 58 64 64 62 60 56 52 46 39 34 30 22 17 14 9 5 0 356 353 348 347 350 349 347 346 345 343 337 332 332 331 331 332 333 333 333 331 318 307 314 325 331 337 346 349 353 350 343 335 319 308 316 322 310 281 295 295 284 281 278 276 268 261 255 244 240 243 255 282 305 316 321 324 324 325 324 322 320
355 356 2 3 12 23 26 43 60 63 65 66 64 63 60 56 51 44 35 30 25 18 14 10 5 1 356 354 352 348 348 349 346 345 345 343 340 336 333 333 331 331 334 333 334 337 335 327 319 321 327 334 345 355 341 328 331 330 322 315 312 314 315 301 286 290 289 281 277 272 258 260 263 269 272 270 273 290 309 319 323 325 325 324 323 321 318 316
3 14 25 31 40 44 49 64 70 69 67 66 64 62 58 53 47 39 32 27 22 16 11 5 1 358 355 356 355 351 352 350 344 345 346 342 340 338 336 335 333 335 336 336 338 340 337 333 329 328 332 341 348 343 330 326 328 325 318 316 315 314 315 309 295 285 277 274 268 252 256 289 289 301 305 305 310 316 320 323 324 324 324 322 319 317 317 316
26 41 52 55 56 60 71 74 71 68 68 65 63 59 54 48 43 36 30 25 19 15 8 2 0 358 357 359 358 355 355 351 345 344 345 343 342 340 338 336 336 337 339 340 342 340 337 338 338 333 323 323 320 321 324 323 322 320 318 316 314 314 314 311 299 279 259 271 274 261 281 307 316 324 323 321 321 320 321 324 324 323 321 320 319 318 318 317
53 67 73 72 70 70 75 74 70 67 65 61 59 55 50 46 42 34 28 23 18 14 9 2 1 1 360 360 359 357 356 353 348 345 345 344 343 341 338 337 337 339 343 343 343 343 342 342 344 337 317 310 312 318 323 320 316 317 319 318 317 319 317 308 296 278 267 283 288 278 286 308 322 329 326 323 322 322 323 324 323 322 321 319 319 318 317 316
71 79 82 82 79 73 72 72 69 64 59 56 57 55 50 45 39 32 26 22 17 14 11 6 3 2 1 360 359 357 355 353 350 347 345 343 343 341 338 337 339 342 345 345 345 346 342 341 344 340 330 326 325 324 324 320 315 316 318 320 323 326 321 303 286 281 289 296 294 294 310 320 324 326 325 323 323 324 324 324 323 322 319 317 316 315 315 315
78 82 82 83 84 78 72 70 67 62 57 57 59 56 50 43 36 31 26 21 17 15 12 9 6 3 1 359 357 355 353 351 351 350 346 343 344 343 339 339 343 345 346 347 347 345 342 341 342 336 332 336 335 327 324 322 317 316 318 320 323 326 324 307 283 284 303 311 310 314 321 325 325 325 325 324 324 325 324 323 321 318 316 315 315 315 315 315
80 82 81 81 82 79 73 68 66 63 58 57 59 55 48 41 35 29 24 20 17 15 12 10 8 3 1 0 357 354 353 350 348 348 346 344 344 342 342 345 347 347 349 350 347 346 344 343 341 334 331 338 343 336 330 325 318 315 316 318 321 325 325 310 287 286 302 311 315 317 320 325 326 325 325 324 323 323 321 318 317 316 315 315 316 316 315 315
77 78 78 76 76 76 73 69 67 64 60 57 56 52 44 37 32 27 22 18 16 14 11 9 8 5 1 1 358 356 355 350 345 344 343 344 345 344 346 348 351 352 351 350 348 349 347 344 343 335 330 338 348 341 333 328 319 315 313 310 314 319 318 310 301 303 309 310 313 317 321 325 325 324 324 323 322 320 318 316 316 316 316 316 317 316 316 316
72 74 73 68 71 77 75 72 68 63 59 55 51 47 40 34 30 24 19 17 14 12 10 7 7 5 2 1 360 358 356 352 348 345 344 344 346 349 349 348 353 354 352 352 351 350 348 344 343 338 330 335 345 340 333 332 322 312 309 311 315 318 318 316 316 320 324 322 322 325 326 325 325 325 324 322 320 317 316 316 316 317 317 317 317 317 318 317
68 71 71 65 71 81 79 73 67 58 55 52 46 42 37 30 26 22 18 16 13 10 8 6 6 4 2 2 1 358 357 354 352 351 351 350 351 353 352 351 354 353 352 355 353 350 349 344 342 340 328 330 342 339 332 333 326 311 321 321 318 321 321 317 315 320 326 329 330 329 326 324 324 324 322 319 317 316 316 318 319 319 319 319 319 319 318 316